Temp
71 72 73 72 71 72 72 73 73 73 73 73 73 73 73 73 73 74 74 73 73 73 73 72 73 72 71 70 69 70 68 68
68 69 69 72 71 70 70 71 71 71 72 72 71 71 71 71 71 72 73 73 73 73 72 72 72 71 70 69 69 69 67 67
65 65 67 68 71 72 70 71 71 71 71 71 70 71 71 72 71 70 71 70 71 71 71 71 69 70 70 69 69 67 67 67
62 63 64 67 71 67 68 71 69 67 67 67 70 70 71 72 70 69 69 69 69 70 70 69 68 70 69 68 68 67 67 69
60 61 61 62 64 65 66 66 65 64 63 64 65 65 66 66 67 68 68 69 69 69 70 70 70 69 69 67 68 68 68 70
58 58 59 59 62 62 64 64 62 61 61 61 60 59 61 62 63 65 66 65 65 66 66 66 66 70 66 65 65 64 65 68
55 57 57 59 59 59 60 61 61 61 61 59 59 58 58 60 62 64 62 63 64 64 64 65 65 66 65 65 64 64 64 66
55 55 55 57 57 57 57 58 58 59 60 59 57 58 56 58 59 58 60 61 61 63 64 66 64 63 63 64 64 64 64 66
54 55 54 54 55 56 56 58 57 55 56 56 56 56 55 56 56 56 57 59 59 59 60 61 64 62 61 62 63 63 64 66
52 55 52 52 53 53 55 54 55 54 54 54 55 55 54 53 53 53 55 57 56 55 55 56 57 61 60 59 61 62 64 65
51 50 50 51 52 52 52 53 53 52 53 53 53 54 54 52 51 50 52 52 52 52 52 52 53 55 57 60 59 59 62 65
50 51 49 50 50 51 52 52 52 52 51 51 51 51 50 50 49 48 49 48 48 48 48 50 51 50 55 58 59 61 62 62
48 48 48 47 47 46 48 46 47 49 50 49 48 46 47 46 45 45 46 45 45 46 45 46 48 49 50 51 54 58 61 63
47 47 46 46 45 44 45 45 46 45 47 46 46 44 44 45 42 42 43 43 43 43 43 42 44 46 42 45 49 53 54 57
46 45 45 44 44 44 44 44 44 43 42 42 43 44 43 43 42 41 41 41 41 41 43 42 40 42 44 44 46 46 46 53
45 45 44 45 43 41 40 39 37 38 38 40 41 42 42 42 41 40 40 42 42 43 45 44 43 40 43 49 47 45 44 43
43 44 43 43 41 40 38 37 37 38 37 37 38 39 41 41 40 39 39 41 42 42 42 42 43 42 42 42 43 45 46 44
42 43 42 41 40 39 37 36 35 35 35 34 35 36 38 38 39 38 38 38 38 39 41 41 41 41 41 41 41 40 41 41
42 42 41 40 39 38 37 36 35 34 34 35 35 35 35 35 36 36 35 35 36 38 39 39 39 39 39 39 40 40 42 42
41 41 40 40 39 37 37 37 35 34 34 34 34 34 35 35 35 35 35 35 34 37 38 36 37 37 37 37 37 38 39 39
MSLP
1014.11 1013.97 1013.74 1013.63 1013.58 1013.28 1013.08 1013.19 1013.29 1013.39 1013.49 1013.69 1013.82 1013.89 1013.94 1014.01 1014.08 1014.16 1014.32 1014.25 1014.29 1014.35 1014.33 1014.51 1014.52 1014.70 1014.96 1015.12 1015.23 1015.38 1015.72 1015.78
1014.72 1014.49 1014.08 1013.76 1013.58 1013.46 1013.54 1013.43 1013.49 1013.60 1013.70 1013.77 1013.83 1013.82 1013.89 1013.92 1013.93 1013.92 1013.96 1014.05 1014.09 1014.13 1014.22 1014.32 1014.40 1014.40 1014.66 1014.83 1014.91 1015.08 1015.45 1015.63
1015.58 1015.20 1014.70 1014.26 1013.99 1013.75 1013.75 1013.87 1014.10 1014.13 1014.03 1013.93 1013.85 1013.93 1013.78 1013.78 1013.82 1013.96 1013.84 1013.67 1013.61 1013.46 1013.75 1013.90 1013.88 1013.85 1014.12 1014.36 1014.69 1014.88 1015.04 1015.29
1016.45 1015.94 1015.42 1014.79 1014.44 1014.35 1014.21 1014.20 1014.71 1015.03 1014.96 1014.61 1014.15 1014.04 1014.06 1013.67 1013.96 1014.04 1013.86 1013.79 1013.66 1013.29 1013.27 1013.44 1013.61 1013.71 1013.77 1014.20 1014.63 1014.79 1014.93 1014.85
1016.80 1016.42 1016.04 1015.59 1015.13 1014.87 1014.68 1014.82 1015.33 1015.63 1015.60 1015.36 1015.18 1014.86 1015.01 1014.39 1014.13 1014.16 1014.10 1014.14 1013.89 1013.64 1013.40 1013.35 1013.11 1013.00 1013.25 1014.32 1014.91 1015.32 1015.42 1015.16
1017.47 1017.11 1016.71 1016.35 1015.94 1015.65 1015.47 1015.43 1015.65 1016.02 1016.02 1015.91 1015.79 1015.69 1015.62 1015.00 1014.63 1014.75 1014.54 1014.44 1014.29 1014.03 1013.67 1013.46 1013.30 1013.03 1013.58 1014.67 1015.06 1015.25 1015.56 1015.08
1017.50 1017.32 1017.23 1016.93 1016.59 1016.48 1016.36 1016.29 1016.30 1016.61 1016.53 1016.51 1016.44 1016.28 1016.09 1015.61 1015.17 1015.19 1015.04 1014.81 1014.53 1014.24 1013.73 1013.64 1013.58 1013.32 1013.59 1013.52 1013.24 1013.51 1014.06 1014.31
1018.18 1018.02 1017.69 1017.20 1017.02 1016.96 1017.04 1016.99 1017.14 1017.20 1017.11 1017.03 1016.85 1016.69 1016.54 1016.19 1016.10 1016.12 1015.62 1015.43 1015.08 1014.57 1014.11 1013.86 1013.72 1013.72 1013.85 1013.38 1013.29 1013.11 1011.62 1012.40
1018.37 1018.60 1018.47 1018.13 1017.71 1017.31 1017.33 1017.38 1017.49 1017.70 1017.71 1017.45 1017.22 1017.15 1017.26 1017.28 1017.05 1016.87 1016.35 1015.98 1015.64 1015.02 1014.55 1013.96 1013.68 1013.58 1013.61 1013.63 1013.02 1012.75 1012.58 1012.85
1018.23 1018.45 1018.71 1018.72 1018.60 1018.40 1018.13 1018.05 1017.98 1018.01 1018.11 1017.98 1017.78 1017.59 1017.57 1017.73 1017.72 1017.78 1017.36 1016.80 1016.45 1015.96 1015.49 1014.96 1014.32 1013.67 1013.39 1013.02 1012.95 1012.66 1012.48 1012.31
1018.53 1018.59 1018.80 1018.86 1018.76 1018.66 1018.84 1018.98 1019.08 1019.04 1018.79 1018.68 1018.57 1018.38 1018.21 1018.19 1018.40 1018.50 1018.21 1017.72 1017.23 1016.92 1016.42 1016.11 1015.13 1014.32 1013.57 1012.79 1012.34 1012.14 1012.03 1011.76
1018.63 1018.84 1019.07 1019.09 1019.03 1019.02 1019.15 1019.31 1019.63 1019.63 1019.57 1019.56 1019.51 1019.42 1019.43 1019.19 1019.31 1019.29 1018.89 1018.61 1018.24 1017.83 1017.29 1016.55 1015.87 1015.26 1013.89 1012.70 1012.08 1011.62 1011.40 1011.42
1019.01 1019.06 1019.30 1019.39 1019.52 1019.76 1019.98 1020.36 1020.46 1020.53 1020.45 1020.32 1020.30 1020.44 1020.20 1020.26 1020.20 1020.00 1019.71 1019.36 1019.14 1018.69 1018.06 1017.39 1016.35 1015.73 1014.30 1013.15 1012.01 1011.15 1010.80 1010.69
1019.08 1019.50 1019.63 1019.76 1019.84 1020.02 1020.13 1020.48 1021.01 1021.06 1021.07 1021.08 1021.10 1021.15 1021.02 1020.73 1020.81 1020.58 1020.30 1019.97 1019.58 1019.18 1018.79 1018.37 1017.72 1017.31 1016.87 1015.48 1013.50 1011.76 1011.08 1010.50
1019.25 1019.84 1020.22 1020.29 1020.37 1020.45 1020.39 1020.55 1021.18 1021.53 1021.79 1021.84 1021.85 1021.80 1021.74 1021.50 1021.23 1021.00 1020.71 1020.45 1020.17 1019.78 1019.40 1019.06 1018.63 1018.10 1017.89 1017.18 1015.71 1014.49 1013.54 1011.00
1019.49 1020.09 1020.65 1020.96 1021.06 1021.23 1021.35 1021.47 1021.73 1022.21 1022.27 1022.32 1022.19 1022.04 1022.01 1021.80 1021.48 1021.17 1020.84 1020.56 1020.38 1020.14 1019.76 1019.43 1019.06 1018.57 1017.96 1017.46 1017.55 1017.04 1015.52 1013.54
1020.06 1020.50 1021.27 1021.58 1021.63 1021.82 1022.09 1022.19 1022.44 1022.57 1022.55 1022.52 1022.48 1022.33 1022.31 1022.06 1021.81 1021.51 1021.19 1020.90 1020.67 1020.52 1020.16 1019.80 1019.47 1019.17 1018.77 1018.33 1017.72 1017.24 1016.48 1015.85
1020.65 1021.06 1021.96 1022.27 1022.40 1022.62 1022.76 1023.09 1023.26 1023.35 1023.24 1023.03 1022.95 1022.68 1022.62 1022.48 1022.28 1022.02 1021.80 1021.58 1021.39 1021.03 1020.62 1020.34 1020.06 1019.67 1019.34 1018.94 1018.53 1017.97 1017.18 1016.76
1020.52 1021.36 1022.44 1022.54 1022.83 1023.12 1023.35 1023.53 1023.69 1023.72 1023.60 1023.38 1023.30 1023.14 1023.11 1023.06 1022.78 1022.61 1022.56 1022.27 1021.88 1021.29 1021.00 1020.78 1020.63 1020.30 1020.00 1019.68 1019.13 1018.62 1018.05 1017.28
1020.78 1021.79 1022.47 1022.70 1023.17 1023.59 1023.79 1023.85 1024.02 1024.14 1023.85 1023.82 1023.78 1023.48 1023.50 1023.44 1023.17 1023.02 1022.95 1022.67 1022.29 1021.85 1021.47 1021.41 1021.20 1020.93 1020.67 1020.32 1019.79 1019.17 1018.61 1018.05
Wind_Speed
11 11 8 5 7 2 7 6 6 5 5 5 5 6 7 9 10 11 12 11 11 11 10 10 10 11 11 9 8 9 5 4
13 11 10 9 8 4 5 3 2 1 2 3 5 6 6 9 10 10 12 12 12 11 11 11 11 11 11 10 9 9 5 5
10 10 10 9 9 8 5 6 7 8 7 7 5 3 4 4 6 9 10 12 13 14 14 13 13 13 11 10 8 3 5 3
9 9 9 7 7 8 9 9 9 9 10 11 5 3 4 6 8 11 12 13 14 13 13 13 9 4 4 7 3 4 4 5
12 10 8 7 6 5 4 5 5 6 10 9 8 7 5 5 5 5 5 11 5 7 6 4 6 5 3 5 5 4 4 5
9 10 9 8 5 5 5 5 6 6 7 9 6 5 5 5 5 5 6 5 6 4 2 4 6 7 9 8 6 6 4 4
9 10 8 6 6 4 5 6 6 6 7 7 6 6 5 5 6 6 6 6 6 6 4 4 4 4 5 8 6 2 5 8
8 9 8 6 5 6 4 4 5 5 7 8 10 7 7 8 7 7 7 7 7 5 6 4 2 1 5 6 9 9 13 17
7 7 8 9 6 6 5 5 6 7 6 9 10 10 9 7 7 7 8 7 9 7 8 7 4 2 4 6 7 9 8 10
7 7 8 8 7 6 4 5 6 6 6 7 10 10 9 8 7 8 8 7 7 8 7 8 6 5 3 4 4 6 9 8
8 8 7 7 6 5 6 8 7 6 7 7 9 10 11 8 8 8 9 8 8 8 7 5 6 7 8 5 5 5 5 5
8 7 8 7 4 5 5 7 5 7 7 8 12 11 13 10 8 10 9 8 9 9 9 8 4 7 7 7 5 5 5 5
7 9 7 5 4 3 4 4 4 6 7 12 13 11 11 10 7 8 8 7 8 10 7 10 5 11 4 5 5 6 7 7
8 8 7 6 4 2 3 3 4 4 6 10 11 11 11 10 8 7 8 6 9 9 10 6 4 8 5 4 4 5 4 4
9 8 7 6 6 3 3 4 4 5 6 6 8 9 9 8 8 6 6 5 5 6 8 9 6 3 7 3 4 3 7 4
9 8 8 7 7 6 7 5 4 3 3 4 6 7 9 8 7 7 5 5 7 7 7 7 7 7 6 5 6 6 4 7
8 9 8 7 7 6 5 7 5 3 4 5 5 5 8 9 8 6 7 6 7 8 8 7 5 5 6 6 7 6 8 5
8 10 8 7 7 7 8 7 6 4 5 4 3 4 5 8 8 8 8 8 7 6 7 8 7 7 6 7 6 5 7 6
9 9 7 7 8 7 7 7 6 6 5 4 5 4 5 7 7 8 7 8 8 7 8 8 8 7 8 7 7 7 7 8
9 8 7 7 7 6 6 6 4 3 5 4 4 3 4 6 6 8 9 9 9 8 7 7 8 7 9 8 6 7 8 7
Wind_Direction
38 31 17 9 340 176 168 182 181 194 207 223 234 235 233 236 241 245 244 238 234 233 228 223 214 212 211 214 230 245 216 247
30 19 13 24 5 283 297 272 237 268 260 251 245 251 257 258 250 244 240 246 245 239 238 236 232 221 216 210 218 242 229 229
29 22 13 4 19 24 25 354 7 3 348 314 293 303 301 300 283 278 268 251 243 235 232 231 233 225 217 210 207 229 246 214
36 23 12 17 30 24 32 37 45 33 18 6 5 13 355 34 28 3 333 293 278 259 240 241 248 239 231 229 195 213 246 250
23 19 15 15 16 18 40 62 51 34 29 21 12 25 2 18 25 7 4 357 344 346 339 303 266 234 210 37 43 6 313 286
28 15 12 14 23 30 32 52 64 50 36 28 22 19 3 8 33 352 6 355 348 342 334 299 307 275 110 76 37 2 321 290
32 25 15 9 30 26 35 48 56 50 41 37 27 23 15 8 23 5 8 355 353 334 350 8 357 64 117 131 135 216 269 276
28 24 7 16 37 47 49 55 48 52 48 37 29 29 17 20 18 8 4 356 349 333 1 341 331 291 155 185 204 233 205 233
51 36 11 17 24 40 66 69 66 54 45 41 40 35 24 19 25 12 6 357 354 355 360 343 330 277 237 208 236 230 237 248
71 57 35 27 22 20 42 56 71 64 48 41 35 36 35 32 26 15 357 1 359 0 356 340 340 326 280 265 235 219 232 231
69 54 49 37 34 46 50 53 58 41 39 37 29 31 32 37 32 14 2 4 10 0 349 343 329 339 321 294 256 246 233 240
79 63 37 28 38 49 51 63 52 47 43 41 38 39 35 36 31 23 14 13 9 1 350 347 311 337 306 297 279 252 244 229
78 71 41 41 26 37 45 50 42 44 44 41 55 41 42 36 31 21 14 17 9 4 347 353 332 356 323 337 297 259 245 227
95 79 60 42 38 46 91 114 65 64 49 48 54 48 40 40 28 19 13 13 12 5 10 353 328 4 344 289 318 330 356 300
104 90 72 59 53 48 49 69 50 40 34 46 45 50 43 33 28 19 10 17 8 353 3 1 351 325 341 295 328 311 329 319
98 89 79 65 53 58 71 84 98 50 50 46 43 39 37 28 20 12 9 16 14 1 4 352 349 342 341 356 336 301 312 311
96 88 74 65 62 64 68 75 74 58 53 52 44 34 33 24 19 12 14 15 15 7 359 353 349 343 337 331 316 318 268 274
96 84 72 63 60 57 67 76 68 62 44 46 27 31 36 27 18 18 20 17 7 0 2 5 2 354 346 338 333 322 324 307
98 94 87 82 72 64 67 74 70 69 54 44 36 37 35 25 25 33 23 12 2 1 17 16 10 7 1 343 344 332 321 306
103 104 106 91 83 74 67 72 68 56 51 41 33 40 47 24 29 34 29 16 10 6 29 13 13 9 9 356 340 332 329 319